CW7054 Weather Reports


Display with metric or nautical units.
time (UTC)temp
F
wind
direction
speed
MPH
gust
MPH
rain 1hr
in
rain 24hr
in
rain mn
in
humidity
%
barometer
mb
20260504201552 59 186 2.0 8.0 0.00 0.00 0.00 74 1010.8
20260504200053 59 197 2.0 11.0 0.00 0.00 0.00 73 1011.0
20260504194602 59 167 3.0 11.0 0.00 0.00 0.00 72 1011.0
20260504193057 60 255 2.0 8.0 0.00 0.00 0.00 72 1011.1
20260504191547 60 258 1.0 8.0 0.00 0.00 0.00 72 1011.1
20260504190058 60 147 1.0 7.0 0.00 0.00 0.00 71 1011.2
20260504184548 60 180 3.0 10.0 0.00 0.00 0.00 71 1011.4
20260504183042 60 107 3.0 11.0 0.00 0.00 0.00 71 1011.5
20260504181543 60 161 2.0 6.0 0.00 0.00 0.00 71 1011.7
20260504180039 60 175 2.0 9.0 0.00 0.00 0.00 73 1011.8
20260504174537 59 182 2.0 11.0 0.00 0.00 0.00 73 1011.9
20260504173043 59 169 2.0 9.0 0.00 0.00 0.00 74 1012.0
20260504171532 59 165 3.0 10.0 0.00 0.00 0.00 77 1012.1
20260504081517 48 217 0.0 3.0 0.00 0.00 0.00 81 1012.5
20260504044603 44 279 0.0 1.0 0.00 0.00 0.00 82 1011.9
20260504043054 44 279 0.0 0.0 0.00 0.00 0.00 80 1011.8
20260504041550 43 279 0.0 0.0 0.00 0.00 0.00 78 1011.8
20260504040047 43 279 0.0 1.0 0.00 0.00 0.00 75 1011.7
20260504034553 43 279 0.0 0.0 0.00 0.00 0.00 72 1011.7
20260504033053 43 279 0.0 0.0 0.00 0.00 0.00 72 1011.6
20260504031544 43 279 0.0 0.0 0.00 0.00 0.00 73 1011.5
20260504030042 43 279 0.0 1.0 0.00 0.00 0.00 75 1011.6
20260504024545 44 279 0.0 1.0 0.00 0.00 0.00 75 1011.5
20260504023040 44 279 0.0 0.0 0.00 0.00 0.00 74 1011.5
20260504021541 44 279 0.0 0.0 0.00 0.00 0.00 73 1011.5
20260504020041 45 279 0.0 0.0 0.00 0.00 0.00 71 1011.5
20260504014539 45 279 0.0 0.0 0.00 0.00 0.00 70 1011.3
20260504013039 46 279 0.0 0.0 0.00 0.00 0.00 68 1011.2
20260504011534 47 279 0.0 0.0 0.00 0.00 0.00 66 1011.2
20260504010046 48 279 0.0 0.0 0.00 0.00 0.00 64 1010.9
20260504004531 49 279 0.0 0.0 0.00 0.00 0.00 60 1010.7
20260504003029 50 279 0.0 0.0 0.00 0.00 0.00 58 1010.6
20260504001528 51 279 0.0 0.0 0.00 0.00 0.00 54 1010.4
20260504000027 53 279 0.0 0.0 0.00 0.00 0.00 52 1010.2
20260503234526 54 279 0.0 0.0 0.00 0.00 0.00 51 1009.9
20260503233023 55 279 0.0 0.0 0.00 0.00 0.00 46 1009.8
20260503231525 55 279 0.0 3.0 0.00 0.00 0.00 43 1009.8
20260503230022 56 279 0.0 3.0 0.00 0.00 0.00 41 1009.7
20260503224522 56 263 1.0 9.0 0.00 0.00 0.00 41 1009.7
20260503223021 56 271 2.0 7.0 0.00 0.00 0.00 39 1009.5
20260503221529 56 338 1.0 9.0 0.00 0.00 0.00 41 1009.4
20260503220020 56 355 3.0 10.0 0.00 0.00 0.00 39 1009.2
20260503214519 56 315 3.0 9.0 0.00 0.00 0.00 39 1009.3
20260503213028 56 261 2.0 11.0 0.00 0.00 0.00 40 1009.0
20260503211520 56 319 5.0 14.0 0.00 0.00 0.00 38 1008.9
20260503210018 56 236 4.0 18.0 0.00 0.00 0.00 39 1008.9
20260503204524 57 224 5.0 13.0 0.00 0.00 0.00 36 1008.9
20260503203017 57 289 4.0 12.0 0.00 0.00 0.00 38 1008.7